AQI (33)

Current Conditions for Foresthill, CA. Overcast, Dry   
Visibility: 10 miles
Cloud ht: 7,000 ft
Space WX Alerts: ALERT:  Geomagnetic K-index of 4 ( Latest Alert ) - Issue Time: 2021 Mar 07 2221 UTC

  Summary / Temperature 

Current Temperature
39.9°F
4.4°C
(24/hr Ago)
36.5°F
(Apparent temp)
33.5°F
Cool
Wind Chill Graphs
32.2°F 
Wind Chill-Avg
37.5°F 3.1°C
 --- Virtual Temp: 41.5°F ---

 Temp Rate:

 24/hr Difference:

 Avg Running Temp:

 Todays High:

 Todays Low:

 Y-days High:

 Y-days Low:

 Todays WChill:

 Y-days WChill:

 Evapotranspiration:

+0.2°F/hr 

+3.4°F

40.1°F

40.6°F 4:09am

39.2°F 1:18am

57.2°F 1:46pm

36.1°F 5:03am

31.6°F 1:47am

26.8°F 5:52am

0.000 in

115' Above Ground

 Temperature:

 6'AGL VRS 115'AGL:

 Avg Running Temp:

 Humidity:

 Todays High:

 Todays Low:

 Y-days High:

 Y-days Low:

51.0°F 

+11.1°F

51.0°F

0% 

51.0°F 12:00am

51.0°F 12:00am

55.0°F 12:43pm

48.0°F 12:00am

Temp & Humidity Graphs

  Wind 

Wind Speed

 Calm

Gusting to

 15.0 mph

Wind from SSW

192°  SSW

Calm

 Avg speed:

 Wind Run:

 Peak Gust:

  6.0 mph 

12.0 miles

  15.0 mph 3:55am

  Almanac  

Moon age: 24 days,17 hours,3 minutes,24%

Waning Crescent
24%
Illuminated
24 days in cycle

 Moonrise:

 Moonset:

 Sunrise:

 Sunset:

 Solar Noon:

3:49am

1:15pm

6:22am

6:00pm

12:14pm

2min 33s more daylight tomorrow 

  Solar Radiation 

(Current Solar)
  No Sun Light
(Todays High)
 None@12:00am

Rain

 Rain Today:

 Rain Rate (/hr):

 Rain last hour:

 Rain Yesterday:

 This Month:

 Season Total:

1 Day Since Last Rain Day

0.00 in

0.000 in

0.00 in

0.00 in

0.42 in

19.18 in

Updated Time

Updated: 3/8/21  4:44am

(Updated  sec ago)

Humidity & Barometer

 Humidity:

 Wetbulb:

 Dew Point:

 Barometer:

85% 

38.2°F 

35.8°F 

30.090 inHg 

 Baro Trend:  Steady 
Northern Calif
Preparedness
Fire 
Level 

    UV Index  

(Current UV)
0.0  None
(Todays High) @ 12:00am
0.0   None

National Weather Service Forecast

Overnight

Overnight: Mostly Cloudy
Mostly Cloudy
Monday

Monday: Rain, Snow Showers Likely
Rain, Snow Showers Likely
Monday
Night
Monday Night: Rain Showers Likely  Showers
Rain Showers Likely Showers
Tuesday

Tuesday: Chance Rain, Snow Showers , Thunderstorms
Chance Rain, Snow Showers , T-Storms
Tuesday
Night
Tuesday Night: Rain, Snow Showers
Rain, Snow Showers
Wednesday

Wednesday: Rain, Snow Showers
Rain, Snow Showers
Lo 36 °F Hi 45 °F ↓ Lo 35 °F Hi 43 °F Lo 35 °F Hi 40 °F

Foresthill Probe 2 Stats  
Foresthill Probe 2: is located on Thomas Street
at 3000 feet. The main Foresthill Weather site
is located on Melody ln at the 2860 foot elevation

Calm
39.2°F
4°C
Temp Rate:
+0.4°F
Calm
Gusting to
2.0 mph
(Humidity)
89%
Wind from SSW
203°  SSW
Updated: 08/03/21 - 04:45:08
 Todays High: 39.5°F 04:23
 Todays Low: 37.9°F 01:06
 Rain Today: 0.00 in
 Season Total: 19.33 in

Foresthill Wx: Monthly,Yearly, Highs and Lows 

Foresthill  
This Weather Data is coming from the main Foresthill
Weather site located on Melody ln at the 2860 foot
elevation
Not Foresthill Probe 2
Weather Data
Month
  High
Month
  Low
Year
High
Year
Low
Temp 65.9°F
3/2/21
36.1°F
3/7/21
71.0°F
1/17/21
25.3°F
1/26/21
Humidity 95%
3/6/21
13%
3/3/21
100%
1/3/21
10%
2/24/21
Heat Index 64.5°F
3/2/21
39.7°F
3/4/21
70.2°F
1/17/21
31.2°F
1/26/21
Wind Chill 65.9°F
3/2/21
26.8°F
3/7/21
71.0°F
1/17/21
12.5°F
1/26/21
Wind Gust 28 mph
3/6/21
0 mph
3/1/21
50 mph
1/19/21
0 mph
1/1/21
Barometer 30.31 in
3/4/21
29.76 in
3/3/21
30.52 in
2/21/21
29.76 in
3/3/21
ET 0.14 in
3/1/21
0.00 in
3/1/21
0.14 in
2/24/21
0.00 in
1/1/21
Dew Point 41.0°F
3/6/21
12.8°F
3/3/21
51.9°F
1/13/21
3.6°F
2/24/21
Visible Satellite Pacific Satellite US Radar Satellite Imagery Sacramento,CA.  (click to enlarge)
NWS Weather Forecast - Summary
Updated: Monday, March 8, 2021 - 3:00am PST
NWS Weather Forecast: Overnight and Monday (Updated: Mon, 08-Mar-2021 2:12am PST)
Overnight

Overnight: Mostly Cloudy
Mostly Cloudy

Lo 36 °F
NWS forecast: Mostly cloudy, with a low around 36. South southeast wind around 9 mph, with gusts as high as 18 mph.
Monday

Monday: Rain, Snow Showers Likely
Rain, Snow Showers Likely

Hi 45 °F ↓
NWS forecast: Rain and snow showers likely after 10am. Mostly cloudy. High near 45, with temperatures falling to around 41 in the afternoon. South wind around 12 mph, with gusts as high as 18 mph. Chance of precipitation is 60%. New rainfall amounts less than a tenth of an inch possible.
YR.NO 10 Day Weather forecast
Last update: 03/08/2021 @ 00:18
Next update: 03/08/2021 @ 06:22
Provided by: 22
      Temperature Precipitation Pressure Wind  
Today
03/08/2021
03:00 06:00 37°F   30.06 inHg Light breeze from southeast 6 mph
  06:00 12:00 36°F   30.14 inHg Gentle breeze from south-southeast 8 mph
  12:00 18:00 41°F 0.04 in 30.21 inHg Gentle breeze from south-southwest 9 mph
  18:00 00:00 37°F 0.10 in 30.21 inHg Light breeze from south 6 mph
    (Click to enlarge)
meteogram

    Forecast for next 9 days

      Temperature Precip Pressure Wind  
Tuesday
03/09/2021
00:00 06:00 34°F < 0.01 in 30.26 inHg Light breeze from east-southeast 5 mph
  06:00 12:00 28°F 0.04 in 30.18 inHg Light breeze from east 4 mph
  12:00 18:00 43°F 0.32 in 30.13 inHg Gentle breeze from southwest 8 mph
  18:00 00:00 34°F 0.48 in 30.06 inHg Light breeze from southeast 5 mph
      Temperature Precip Pressure Wind  
Wednesday
03/10/2021
00:00 06:00 32°F 0.28 in 30.01 inHg Light breeze from south 4 mph
  06:00 12:00 30°F 0.05 in 29.99 inHg Light breeze from south-southeast 7 mph
  10:00 16:00 34°F 0.06 in 30.01 inHg Light breeze from south 7 mph
  16:00 22:00 36°F < 0.01 in 29.98 inHg Light breeze from south 6 mph
  22:00 04:00 27°F   30.04 inHg Light air from east-northeast 2 mph
      Temperature Precip Pressure Wind  
Thursday
03/11/2021
04:00 10:00 12°F   30.06 inHg Light air from east 3 mph
  10:00 16:00 36°F 0.02 in 30.10 inHg Light air from west-northwest 2 mph
  16:00 22:00 41°F   30.07 inHg Light breeze from west-northwest 4 mph
  22:00 04:00 23°F   30.11 inHg Light breeze from east-northeast 7 mph
      Temperature Precip Pressure Wind  
Friday
03/12/2021
04:00 10:00 25°F   30.14 inHg Light breeze from east-northeast 7 mph
  10:00 16:00 43°F   30.20 inHg Light air from north-northwest 3 mph
  16:00 22:00 54°F   30.14 inHg Light breeze from west-northwest 4 mph
  22:00 04:00 27°F   30.26 inHg Gentle breeze from east-northeast 9 mph
      Temperature Precip Pressure Wind  
Saturday
03/13/2021
04:00 10:00 25°F   30.29 inHg Gentle breeze from east-northeast 9 mph
  10:00 16:00 50°F   30.35 inHg Light air from west-northwest 1 mph
  16:00 23:00 54°F   30.29 inHg Light breeze from west 4 mph
  23:00 05:00 28°F   30.32 inHg Light breeze from east-northeast 6 mph
      Temperature Precip Pressure Wind  
Sunday
03/14/2021
05:00 11:00 25°F   30.33 inHg Light breeze from east 5 mph
  11:00 17:00 52°F   30.32 inHg Light air from west-southwest 3 mph
  17:00 23:00 52°F   30.22 inHg Light breeze from west-southwest 5 mph
  23:00 05:00 34°F   30.21 inHg Light breeze from east 5 mph
      Temperature Precip Pressure Wind  
Monday
03/15/2021
05:00 11:00 34°F   30.11 inHg Light breeze from east-southeast 5 mph
  11:00 17:00 46°F   30.07 inHg Light breeze from south-southwest 7 mph
  17:00 23:00 45°F   29.99 inHg Light breeze from west-southwest 6 mph
  23:00 05:00 32°F   30.01 inHg Light breeze from east 4 mph
      Temperature Precip Pressure Wind  
Tuesday
03/16/2021
05:00 11:00 32°F   30.00 inHg Gentle breeze from east-northeast 9 mph
  11:00 17:00 46°F   29.99 inHg Light breeze from east 6 mph
  17:00 23:00 52°F   29.88 inHg Light breeze from north-northeast 4 mph
  23:00 05:00 37°F   29.99 inHg Gentle breeze from east-northeast 10 mph
      Temperature Precip Pressure Wind  
Wednesday
03/17/2021
05:00 11:00 30°F   30.04 inHg Gentle breeze from east-northeast 8 mph

NOAA Local Storm Report
5 MILES EAST-NORTHEAST OF SHINGLETOWN   ( More )
DATE
03/06/2021
TIME
8:00 AM
COUNTY
SHASTA
STATE
CA
GEOGRAPHIC
40.52N 121.80W
SOURCE
COCORAHS
SNOW MEASURED AT 7.0 INCH
7 inches of new snow reported by cocorahs observer 5. 3 ene of shingletown.
How Close Are We To this Month's Temperature Record ?
Updated Monday, Mar 8, 2021- 4:45:00 AM

Current Temperature: 39.9°F

March's High: Temperature Record 77.2°F - Set on Fri, Mar 27, 2015 - 2:34:00 PM
We are currently 37.3°F Less than this Month's record High

March's Low: Temperature Record 28.6°F - Set on Wed, Mar 7, 2012 - 5:18:00 AM
We are currently 11.3°F More than this Month's record Low

Weather History For Monday, March 8, 2021


On this Day - In Weather History ...
Data courtesy of weatherforyou.com
powered by Cumulus v1.9.3 (1059)
Ambient Weather VWS v14.00
Top Website Map Copyright © 2007 - 2021 Foresthillweather.com Never base important decisions on this or any weather information obtained from the Internet